Regional Weather Roundup
Issued by NWS

Home | Current Version | Previous Version | Text Only | Print | Product List | Glossary Off
Versions: 1 2 3 4 5 6 7 8 9 10 11 12 13 14 15 16 17 18 19 20 21 22 23 24 25 26 27 28 29 30 31 32 33 34 35 36 37 38 39 40 41 42 43 44 45 46 47 48 49 50

000
ASUS43 KDMX 262301
RWRIA

WEATHER ROUNDUP FOR IOWA
NATIONAL WEATHER SERVICE DES MOINES IA
600 PM CDT WED APR 26 2017

NOTE: "FAIR" INDICATES FEW OR NO CLOUDS BELOW 12,000 FEET WITH NO
SIGNIFICANT WEATHER AND/OR OBSTRUCTIONS TO VISIBILITY.

* - THESE STATIONS ARE NOT NWS STATIONS...THUS NOT UNDER NWS
QUALITY CONTROL.  THEY ALSO DO NOT REPORT WEATHER SUCH
AS PRECIPITATION OR FOG.

IAZ001>003-012>014-020>022-031>034-043>046-270000-
   NORTHWEST IOWA

CITY           SKY/WX    TMP DP  RH WIND       PRES   REMARKS
CARROLL *      CLOUDY    43  36  75 NW18G24   29.61S
CHEROKEE *     CLOUDY    38  34  84 NW10G22   29.63S WCI  32
DENISON *      CLOUDY    39  34  81 NW13G20   29.65S WCI  32
LE MARS *      CLOUDY    39  32  75 NW20G25   29.67S WCI  30
ORANGE CITY *  CLOUDY    37  34  87 NW14G25   29.65R WCI  29
SHELDON *      CLOUDY    37  32  81 NW18G24   29.62R WCI  27
SIOUX CITY     CLOUDY    41  32  70 NW22G30   29.65F
SPENCER        CLOUDY    38  33  82 NW17      29.62R WCI  28
STORM LAKE *     N/A     37  34  87 NW17      29.61F WCI  28
$$

IAZ055>058-069>071-079>083-090>094-270000-
   SOUTHWEST IOWA

CITY           SKY/WX    TMP DP  RH WIND       PRES   REMARKS
ATLANTIC *     CLOUDY    43  36  75 N15       29.62S
AUDUBON *      CLOUDY    41  36  81 NW15      29.62F
CLARINDA *     CLOUDY    45  36  70 N15       29.64S
COUNCIL BLFS *   N/A     43  34  70 NW17G24   29.64S
CRESTON *      CLOUDY    43  36  75 N15       29.61R
HARLAN  *      CLOUDY    43  36  75 NW18      29.66S
LAMONI         CLOUDY    45  38  76 NW13      29.59R
RED OAK *      CLOUDY    45  34  65 NW16G22   29.63S
SHENANDOAH *   CLOUDY    45  34  65 NW14G22   29.64S
$$

IAZ047>049-059>061-072>074-084-270000-
   CENTRAL IOWA

CITY           SKY/WX    TMP DP  RH WIND       PRES   REMARKS
AMES           CLOUDY    45  39  79 N13       29.58R
ANKENY *       CLOUDY    46  37  71 NW14G20   29.59S
BOONE *        CLOUDY    43  39  87 NW15      29.57S
CHARITON *     CLOUDY    46  39  76 NW14      29.57S
DES MOINES     CLOUDY    47  38  71 NW12      29.58R
GRINNELL*      CLOUDY    47  39  75 NW13      29.56S
KNOXVILLE *    CLOUDY    48  39  71 NW13      29.55F
MARSHALLTOWN   CLOUDY    46  39  76 NW17      29.56R
NEWTON *       CLOUDY    46  39  76 NW15      29.56R
PELLA *        CLOUDY    49  40  72 NW10      29.58R
PERRY *        CLOUDY    45  37  76 NW13      29.60R
$$

IAZ004>006-015-016-023>025-035-036-270000-
   NORTH CENTRAL IOWA

CITY           SKY/WX    TMP DP  RH WIND       PRES   REMARKS
ALGONA *       CLOUDY    41  37  87 NW15G23   29.59R
CLARION *      CLOUDY    43  39  87 NW16      29.57S
ESTHERVILLE    CLOUDY    36  34  92 NW18      29.61R WCI  26
FORT DODGE *   CLOUDY    43  34  70 NW9       29.60S
MASON CITY     CLOUDY    40  36  86 NW18G25   29.57R WCI  31
FOREST CITY *  CLOUDY    41  32  70 NW14G20   29.57S
WEBSTER CITY * CLOUDY    43  37  81 NW20      29.56S
IOWA FALLS *   CLOUDY    44  37  76 NW17      29.57S
$$

IAZ007>011-017>019-026>030-037>042-050>054-066-270000-
   NORTHEAST IOWA

CITY           SKY/WX    TMP DP  RH WIND       PRES   REMARKS
CEDAR RAPIDS   CLOUDY    49  43  80 NW14      29.53R
CHARLES CITY * CLOUDY    43  39  87 NW14      29.55R
CLINTON *      LGT RAIN  51  48  89 W12       29.51F
DECORAH *      CLOUDY    43  39  87 NW12      29.52R
DUBUQUE        CLOUDY    49  45  86 W9        29.49F
MONTICELLO *   CLOUDY    48  43  81 NW14      29.51F
OELWEIN *      CLOUDY    45  41  87 NW17      29.53R
WATERLOO       CLOUDY    45  37  73 NW13G24   29.54R
$$

IAZ064-065-067-068-078-270000-
   EAST CENTRAL IOWA

CITY           SKY/WX    TMP DP  RH WIND       PRES   REMARKS
DAVENPORT      CLOUDY    51  46  83 W10       29.52F
IOWA CITY      CLOUDY    51  43  74 W9        29.55R
MUSCATINE *    CLOUDY    52  45  76 NW7G14    29.54R
QUAD CITIES    CLOUDY    52  47  83 W8        29.51F
$$

IAZ062-063-075>077-085>089-095>099-270000-
   SOUTHEAST IOWA

CITY           SKY/WX    TMP DP  RH WIND       PRES   REMARKS
BURLINGTON     CLOUDY    50  46  86 NW7       29.52S
FAIRFIELD *    CLOUDY    50  45  81 NW9       29.54S
FORT MADISON * CLOUDY    48  46  93 NW10      29.53S
KEOKUK *       LGT RAIN  48  46  93 NW8       29.53R
OSKALOOSA *    CLOUDY    49  40  71 NW13      29.56S
CENTERVILLE *  LGT RAIN  46  43  87 NW10      29.56F
OTTUMWA        CLOUDY    50  43  77 NW9       29.55R
WASHINGTON *   CLOUDY    50  46  87 NW7       29.54F
$$

ABBREVIATIONS USED IN REMARKS
   TC - TEMPERATURES IN CELSIUS
  WCI - WIND CHILL INDEX
   HX - HEAT INDEX
  VSB - VISIBILITY
$$




USA.gov is the U.S. government's official web portal to all federal, state and local government web resources and services.